This is the latest recevied weather packets stored in our database for station/object KO4DYK. If no packets are shown the sender has not sent any weather packets the latest 1 day(s).
| Time | Temp. | Humidity | Pressure | Rain* | Wind** | Luminosity | Snow |
|---|---|---|---|---|---|---|---|
| 1778036177 | 20.56° C | 93% | 1012.2 hPa | 0 mm | 1.79 m/s, 169° | 0 W/m² | - |
| 1778035873 | 20° C | 94% | 1012.2 hPa | 0 mm | 2.68 m/s, 220° | 0 W/m² | - |
| 1778035571 | 20° C | 94% | 1012.4 hPa | 0 mm | 1.79 m/s, 191° | 0 W/m² | - |
| 1778035267 | 20° C | 94% | 1012.1 hPa | 0 mm | 1.34 m/s, 189° | 0 W/m² | - |
| 1778034963 | 20° C | 94% | 1012.5 hPa | 0 mm | 1.34 m/s, 185° | 0 W/m² | - |
| 1778034661 | 20° C | 94% | 1012.4 hPa | 0 mm | 0.89 m/s, 204° | 0 W/m² | - |
| 1778034358 | 20° C | 95% | 1012.3 hPa | 0 mm | 0.89 m/s, 203° | 0 W/m² | - |
| 1778034055 | 20° C | 95% | 1012.2 hPa | 0 mm | 0.89 m/s, 209° | 0 W/m² | - |
| 1778033753 | 20° C | 95% | 1011.9 hPa | 0 mm | 1.34 m/s, 176° | 0 W/m² | - |
| 1778033450 | 20° C | 95% | 1012.2 hPa | 0 mm | 0.45 m/s, 169° | 0 W/m² | - |
| 1778033147 | 20° C | 95% | 1012.5 hPa | 0 mm | 2.24 m/s, 179° | 0 W/m² | - |
| 1778032844 | 20° C | 95% | 1012.2 hPa | 0 mm | 0 m/s | 0 W/m² | - |
| 1778032542 | 20° C | 95% | 1012.1 hPa | 0 mm | 0.45 m/s, 169° | 0 W/m² | - |
| 1778032238 | 20° C | 95% | 1012.1 hPa | 0 mm | 2.24 m/s, 177° | 0 W/m² | - |
| 1778031936 | 20° C | 95% | 1011.8 hPa | 0 mm | 1.34 m/s, 221° | 0 W/m² | - |
| 1778031632 | 20° C | 95% | 1011.8 hPa | 0 mm | 2.68 m/s, 153° | 0 W/m² | - |
| 1778031330 | 20° C | 95% | 1011.8 hPa | 0 mm | 2.68 m/s, 177° | 0 W/m² | - |
| 1778031026 | 20° C | 95% | 1012 hPa | 0 mm | 1.34 m/s, 187° | 0 W/m² | - |
| 1778030723 | 20° C | 95% | 1011.9 hPa | 0 mm | 1.34 m/s, 175° | 0 W/m² | - |
| 1778030420 | 20° C | 95% | 1011.8 hPa | 0 mm | 1.34 m/s, 186° | 0 W/m² | - |
| 1778030128 | 20° C | 95% | 1011.6 hPa | 0 mm | 0.89 m/s, 176° | 0 W/m² | - |
| 1778029814 | 20° C | 95% | 1011.6 hPa | 0 mm | 0.89 m/s, 204° | 0 W/m² | - |
| 1778029513 | 20° C | 95% | 1012 hPa | 0 mm | 0.45 m/s, 178° | 0 W/m² | - |
| 1778029209 | 20° C | 96% | 1011.8 hPa | 0 mm | 0.45 m/s, 173° | 0 W/m² | - |
| 1778028907 | 20° C | 96% | 1011.8 hPa | 0 mm | 1.34 m/s, 232° | 0 W/m² | - |
* Rain latest hour (hover to see other rain measurements)
** Current wind speed in m/s (hover to see current wind gust speed)